Location: Newark
(45.4422°N, 16.2769°E)
Time: 21:14:19
(UTC+00:00)

Vanguard 2 - Pass Details

Date: 12 December 2019
Orbit: 553 x 2938 km, 32.9° (Epoch: 18 January)

Event Time Altitude Azimuth Distance (km) Brightness Sun altitude
Rises 23:58:52 0° 230° (SW) 5,666 - -63.4°
Reaches altitude 10° 00:02:27 10° 224° (SW) 4,936 - -63.0°
Maximum altitude 00:16:25 45° 159° (SSE) 3,552 - -61.3°
Exits shadow 00:23:54 32° 116° (ESE) 4,202 11.1 -60.4°
Drops below altitude 10° 00:32:35 10° 95° (E) 5,679 12.1 -59.2°
Sets 00:37:03 0° 90° (E) 6,558 12.6 -58.6°
